Regional Weather Roundup
Issued by NWS State College, PA

Home | Current Version | Previous Version | Graphics & Text | Print | Product List | Glossary On
Versions: 1 2 3 4 5 6 7 8 9 10 11 12 13 14 15 16 17 18 19 20 21 22 23 24 25 26 27 28 29 30 31 32 33 34 35 36 37 38 39 40 41 42 43 44 45 46 47 48 49 50
000
ASUS41 KCTP 251510
RWRCTP

REGIONAL WEATHER ROUNDUP
NATIONAL WEATHER SERVICE STATE COLLEGE PA
1100 AM EDT MON JUL 25 2016

Note: "fair" indicates few or no clouds below 12,000 feet with no
significant weather and/or obstructions to visibility.

* = STATION THAT DOES NOT REPORT PRECIPITATION /E.G. RAIN...SNOW...ETC/
    THUNDER OR FOG.

PAZ002>004-007>009-013>016-020>023-029>032-251600-
WESTERN PENNSYLVANIA

CITY           SKY/WX    TMP DP  RH WIND       PRES   REMARKS
ERIE           PTSUNNY   84  74  71 W7        29.90F
MEADVILLE      PTSUNNY   80  73  79 W10       29.96F
FRANKLIN*      MOSUNNY   81  72  74 SW9       29.99F
NEW CASTLE     PTSUNNY   86  76  71 SW8       29.97S HX  96
BEAVER COUNTY  MOSUNNY   86  75  70 W7        29.98F HX  95
BUTLER*        SUNNY     84  75  74 W9        30.00F
PITTSBURGH INT MOSUNNY   86  73  65 SW8       29.98F
PITTSBURGH     SUNNY     87  75  67 S7        29.98F HX  96
INDIANA*       SUNNY     84  77  79 SW8       30.03F
LATROBE        MOSUNNY   86  77  74 SW8       30.01S HX  97
WASHINGTON CO* MOSUNNY   86  75  70 SW12      30.01R HX  95
$$

PAZ004>006-010>012-017>019-024>028-033>037-041-042-045-046-049>053-251600-
CENTRAL PENNSYLVANIA

CITY           SKY/WX    TMP DP  RH WIND       PRES   REMARKS
BRADFORD       CLOUDY    80  71  74 W10       30.01R
DUBOIS         CLOUDY    82  73  74 SW12      29.99F
CLEARFIELD     CLOUDY    82  72  71 SW7       30.00S
JOHNSTOWN      CLOUDY    82  71  69 W14       30.06S
ALTOONA        CLOUDY    85  72  65 W9        30.02R
STATE COLLEGE  SUNNY     82  75  78 W3        29.99R
WILLIAMSPORT   CLOUDY    82  70  66 SE5       29.94R
SELINSGROVE    MOSUNNY   85  75  72 SW5       29.96S
FT INDIANTOWN  SUNNY     88  73  60 SW6       29.95S HX  96
CAPITAL CITY   MOSUNNY   89  74  60 W7        29.95S HX  98
HARRISBURG     PTSUNNY   89  76  65 CALM      29.95S HX 100
YORK           SUNNY     89  74  60 VRB6      29.96S HX  98
$$

PAZ038>040-043-044-047-048-054-055-060>062-067>071-251600-
EASTERN PENNSYLVANIA

CITY           SKY/WX    TMP DP  RH WIND       PRES   REMARKS
SCRANTON       CLOUDY    86  69  56 W9        29.96S
MOUNT POCONO   CLOUDY    83  65  54 NW13      30.02R
ALLENTOWN      SUNNY     88  68  51 W6        29.94S
QUAKERTOWN*    SUNNY     86  73  66 CALM      29.97S
READING        SUNNY     88  71  57 S6        29.94S
LANCASTER      MOSUNNY   86  72  62 VRB3      29.96S
COATESVILLE    CLOUDY    84  75  74 CALM      29.99F
POTTSTOWN      SUNNY     86  73  65 VRB5      29.97F
BLUE BELL      SUNNY     82  75  78 SW3       29.95F
DOYLESTOWN     SUNNY     83  73  72 SW7       29.95S
WILLOW GROVE   NOT AVBL
NORTH PHILA    SUNNY     86  76  71 SW7       29.96F HX  96
PHILADELPHIA   MOSUNNY   85  75  72 VRB7      29.95F
$$




USA.gov is the U.S. government's official web portal to all federal, state and local government web resources and services.